Location: Guferjoch
(46.7462°N, 8.4506°E)
Time: 21:10:51
(UTC+00:00)

ISS - Visible Passes

Search period start: 26 February 2021 00:00
Search period end: 08 March 2021 00:00
Orbit: 417 x 422 km, 51.6° (Epoch: 27 February)

Date Brightness Start Highest point End Pass type
(mag) Time Alt. Az. Time Alt. Az. Time Alt. Az.
26 Feb -3.7 04:37:44 46° W 04:38:31 66° NNW 04:41:52 10° ENE visible
27 Feb -2.4 03:52:11 39° ENE 03:52:11 39° ENE 03:54:25 10° ENE visible
27 Feb -2.8 05:25:09 11° WNW 05:28:07 36° N 05:31:16 10° ENE visible
28 Feb -0.3 03:06:35 12° ENE 03:06:35 12° ENE 03:06:56 10° ENE visible
28 Feb -3.0 04:39:33 31° NW 04:40:33 41° NNW 04:43:46 10° ENE visible
01 Mar -2.5 03:53:54 37° NNE 03:53:54 37° NNE 03:56:17 10° ENE visible
01 Mar -2.6 05:27:07 10° WNW 05:30:14 34° N 05:33:22 10° ENE visible
02 Mar -0.5 03:08:13 14° ENE 03:08:13 14° ENE 03:08:48 10° ENE visible
02 Mar -2.6 04:41:10 23° NW 04:42:38 34° N 04:45:45 10° ENE visible
03 Mar -2.4 03:55:29 34° NNE 03:55:29 34° NNE 03:58:10 10° ENE visible
03 Mar -2.8 05:29:04 10° WNW 05:32:17 42° NNE 05:35:31 10° E visible
04 Mar -0.7 03:09:46 16° NE 03:09:46 16° NE 03:10:37 10° ENE visible
04 Mar -2.6 04:42:43 19° NW 04:44:41 36° N 04:47:50 10° ENE visible
05 Mar -2.5 03:57:01 34° N 03:57:02 34° N 04:00:10 10° ENE visible
06 Mar -0.9 03:11:19 18° NE 03:11:19 18° NE 03:12:30 10° ENE visible
06 Mar -3.1 04:44:17 17° NW 04:46:37 52° NNE 04:49:55 10° E visible
07 Mar -2.9 03:58:37 40° N 03:59:01 42° NNE 04:02:14 10° E visible
